status,avgMeasuredTime,avgSpeed,extID,medianMeasuredTime,TIMESTAMP,vehicleCount,_id,REPORT_ID
OK,92,43,994,92,2014-08-01T08:00:00,5,20747049,187562
OK,85,46,994,85,2014-08-01T08:10:00,5,20747871,187562
OK,116,34,994,116,2014-08-01T08:15:00,7,20748320,187562
OK,123,32,994,123,2014-08-01T08:20:00,3,20748769,187562
OK,123,32,994,123,2014-08-01T08:25:00,0,20749218,187562
OK,131,30,994,131,2014-08-01T08:30:00,1,20749667,187562
OK,123,32,994,123,2014-08-01T08:35:00,3,20750116,187562
OK,123,32,994,123,2014-08-01T08:40:00,3,20750565,187562
OK,117,33,994,117,2014-08-01T08:45:00,4,20751014,187562
OK,113,35,994,113,2014-08-01T08:50:00,4,20751463,187562
OK,120,32,994,120,2014-08-01T08:55:00,4,20751912,187562
OK,113,35,994,113,2014-08-01T09:00:00,5,20752361,187562
OK,108,36,994,108,2014-08-01T09:05:00,2,20752810,187562
OK,123,32,994,123,2014-08-01T09:10:00,1,20753259,187562
OK,107,36,994,107,2014-08-01T09:20:00,8,20754157,187562
OK,128,30,994,128,2014-08-01T09:25:00,6,20754606,187562
OK,127,31,994,127,2014-08-01T09:30:00,5,20755055,187562
OK,124,31,994,124,2014-08-01T09:35:00,10,20755504,187562
OK,123,32,994,123,2014-08-01T09:40:00,7,20755953,187562
OK,117,33,994,117,2014-08-01T09:45:00,3,20756402,187562
OK,119,33,994,119,2014-08-01T09:50:00,9,20756851,187562
OK,119,33,994,119,2014-08-01T09:55:00,7,20757300,187562
OK,124,31,994,124,2014-08-01T10:00:00,2,20757749,187562
OK,124,31,994,124,2014-08-01T10:05:00,6,20758198,187562
OK,123,32,994,123,2014-08-01T10:15:00,6,20759096,187562
OK,126,31,994,126,2014-08-01T10:20:00,3,20759545,187562
OK,118,33,994,118,2014-08-01T10:25:00,7,20759994,187562
OK,115,34,994,115,2014-08-01T10:30:00,5,20760443,187562
OK,126,31,994,126,2014-08-01T10:35:00,3,20760892,187562
OK,117,33,994,117,2014-08-01T10:40:00,6,20761341,187562
OK,108,36,994,108,2014-08-01T10:45:00,6,20761790,187562
OK,120,32,994,120,2014-08-01T10:50:00,5,20762239,187562
OK,103,38,994,103,2014-08-01T10:55:00,6,20762688,187562
OK,120,32,994,120,2014-08-01T11:00:00,8,20763137,187562
OK,123,32,994,123,2014-08-01T11:05:00,5,20763586,187562
OK,119,33,994,119,2014-08-01T11:10:00,4,20764035,187562
OK,125,31,994,125,2014-08-01T11:20:00,6,20764932,187562
OK,125,31,994,125,2014-08-01T11:25:00,11,20765381,187562
OK,116,34,994,116,2014-08-01T11:30:00,7,20765830,187562
OK,122,32,994,122,2014-08-01T11:35:00,7,20766279,187562
OK,125,31,994,125,2014-08-01T11:40:00,9,20766728,187562
OK,123,32,994,123,2014-08-01T11:45:00,6,20767177,187562
OK,117,33,994,117,2014-08-01T11:50:00,6,20767626,187562
OK,117,33,994,117,2014-08-01T11:55:00,8,20768075,187562
OK,122,32,994,122,2014-08-01T12:00:00,6,20768524,187562
OK,116,34,994,116,2014-08-01T12:10:00,11,20769422,187562
OK,117,33,994,117,2014-08-01T12:15:00,10,20769871,187562
OK,111,35,994,111,2014-08-01T12:20:00,7,20770320,187562
OK,93,42,994,93,2014-08-01T12:25:00,10,20770769,187562
OK,78,50,994,78,2014-08-01T12:30:00,14,20771218,187562
OK,97,40,994,97,2014-08-01T12:35:00,8,20771667,187562
OK,91,43,994,91,2014-08-01T12:40:00,4,20772116,187562
OK,72,54,994,72,2014-08-01T12:45:00,9,20772565,187562
OK,73,54,994,73,2014-08-01T12:50:00,11,20773014,187562
OK,70,56,994,70,2014-08-01T12:55:00,9,20773463,187562
OK,70,56,994,70,2014-08-01T13:00:00,9,20773912,187562
OK,70,56,994,70,2014-08-01T13:05:00,7,20774361,187562
OK,87,45,994,87,2014-08-01T13:10:00,9,20774810,187562
OK,99,39,994,99,2014-08-01T13:15:00,6,20775259,187562
OK,72,54,994,72,2014-08-01T13:20:00,4,20775708,187562
OK,69,57,994,69,2014-08-01T13:25:00,4,20776157,187562
OK,83,47,994,83,2014-08-01T13:30:00,6,20776606,187562
OK,75,52,994,75,2014-08-01T13:35:00,8,20777055,187562
OK,74,53,994,74,2014-08-01T13:40:00,12,20777504,187562
OK,71,55,994,71,2014-08-01T13:45:00,11,20777953,187562
OK,69,57,994,69,2014-08-01T13:50:00,8,20778402,187562
OK,76,52,994,76,2014-08-01T14:00:00,10,20779300,187562
OK,92,43,994,92,2014-08-01T14:05:00,4,20779749,187562
OK,78,50,994,78,2014-08-01T14:10:00,7,20780198,187562
OK,69,57,994,69,2014-08-01T14:15:00,9,20780647,187562
OK,66,59,994,66,2014-08-01T14:20:00,6,20781096,187562
OK,68,58,994,68,2014-08-01T14:25:00,6,20781545,187562
OK,74,53,994,74,2014-08-01T14:30:00,11,20781994,187562
OK,72,54,994,72,2014-08-01T14:35:00,10,20782443,187562
OK,67,59,994,67,2014-08-01T14:40:00,3,20782892,187562
OK,76,52,994,76,2014-08-01T14:45:00,3,20783341,187562
OK,72,54,994,72,2014-08-01T14:50:00,8,20783790,187562
OK,69,57,994,69,2014-08-01T15:00:00,8,20784688,187562
OK,76,52,994,76,2014-08-01T15:05:00,14,20785137,187562
OK,78,50,994,78,2014-08-01T15:10:00,10,20785586,187562
OK,67,59,994,67,2014-08-01T15:15:00,5,20786035,187562
OK,72,54,994,72,2014-08-01T15:20:00,6,20786484,187562
OK,117,33,994,117,2014-08-01T15:25:00,4,20786933,187562
OK,183,21,994,183,2014-08-01T15:30:00,2,20787382,187562
OK,124,31,994,124,2014-08-01T15:35:00,5,20787831,187562
OK,123,32,994,123,2014-08-01T15:40:00,7,20788280,187562
OK,108,36,994,108,2014-08-01T15:45:00,5,20788729,187562
OK,109,36,994,109,2014-08-01T15:50:00,8,20789178,187562
OK,111,35,994,111,2014-08-01T15:55:00,6,20789627,187562
OK,125,31,994,125,2014-08-01T16:00:00,1,20790076,187562
OK,116,34,994,116,2014-08-01T16:05:00,2,20790525,187562
OK,122,32,994,122,2014-08-01T16:10:00,6,20790974,187562
OK,119,33,994,119,2014-08-01T16:15:00,8,20791423,187562
OK,107,36,994,107,2014-08-01T16:20:00,4,20791872,187562
OK,122,32,994,122,2014-08-01T16:25:00,4,20792321,187562
OK,122,32,994,122,2014-08-01T16:30:00,5,20792770,187562
OK,133,29,994,133,2014-08-01T16:35:00,1,20793219,187562
OK,112,35,994,112,2014-08-01T16:40:00,3,20793668,187562
OK,120,32,994,120,2014-08-01T16:45:00,5,20794117,187562
OK,122,32,994,122,2014-08-01T16:50:00,2,20794566,187562
OK,107,36,994,107,2014-08-01T16:55:00,1,20795015,187562
OK,127,31,994,127,2014-08-01T17:00:00,2,20795464,187562
OK,116,34,994,116,2014-08-01T17:05:00,4,20795913,187562
OK,113,35,994,113,2014-08-01T17:10:00,4,20796362,187562
OK,122,32,994,122,2014-08-01T17:15:00,2,20796811,187562
OK,127,31,994,127,2014-08-01T17:20:00,2,20797260,187562
OK,127,31,994,127,2014-08-01T17:25:00,2,20797709,187562
OK,105,37,994,105,2014-08-01T17:30:00,3,20798158,187562
OK,94,42,994,94,2014-08-01T17:35:00,4,20798607,187562
OK,78,50,994,78,2014-08-01T17:40:00,2,20799056,187562
OK,89,44,994,89,2014-08-01T17:45:00,2,20799505,187562
OK,104,38,994,104,2014-08-01T17:50:00,1,20799954,187562
OK,95,41,994,95,2014-08-01T17:55:00,1,20800403,187562
OK,126,31,994,126,2014-08-01T18:00:00,3,20800852,187562
OK,131,30,994,131,2014-08-01T18:05:00,2,20801301,187562
OK,118,33,994,118,2014-08-01T18:10:00,1,20801750,187562
OK,117,33,994,117,2014-08-01T18:15:00,1,20802199,187562
OK,125,31,994,125,2014-08-01T18:20:00,1,20802648,187562
OK,125,31,994,125,2014-08-01T18:25:00,1,20803097,187562
OK,125,31,994,125,2014-08-01T18:30:00,1,20803546,187562
OK,128,30,994,128,2014-08-01T18:35:00,3,20803995,187562
OK,102,38,994,102,2014-08-01T18:40:00,5,20804444,187562
OK,78,50,994,78,2014-08-01T18:45:00,3,20804893,187562
OK,50,79,994,50,2014-08-01T18:50:00,1,20805342,187562
OK,50,79,994,50,2014-08-01T18:55:00,0,20805791,187562
OK,50,79,994,50,2014-08-01T19:00:00,0,20806240,187562
OK,122,32,994,122,2014-08-01T19:05:00,2,20806689,187562
OK,122,32,994,122,2014-08-01T19:10:00,3,20807138,187562
OK,122,32,994,122,2014-08-01T19:15:00,1,20807587,187562
OK,126,31,994,126,2014-08-01T19:20:00,1,20808036,187562
OK,114,34,994,114,2014-08-01T19:25:00,2,20808485,187562
OK,111,35,994,111,2014-08-01T19:30:00,2,20808934,187562
OK,114,34,994,114,2014-08-01T19:35:00,0,20809383,187562
OK,114,34,994,114,2014-08-01T19:40:00,0,20809832,187562
OK,114,34,994,114,2014-08-01T19:45:00,0,20810281,187562
OK,114,34,994,114,2014-08-01T19:50:00,0,20810730,187562
OK,114,34,994,114,2014-08-01T19:55:00,0,20811179,187562
OK,114,34,994,114,2014-08-01T22:00:00,0,20816908,187562
OK,114,34,994,114,2014-08-02T00:00:00,0,20823347,187562
OK,114,34,994,114,2014-08-02T00:05:00,0,20823796,187562
OK,86,46,994,86,2014-08-02T00:10:00,1,20824245,187562
OK,89,44,994,89,2014-08-02T00:15:00,2,20824694,187562
OK,92,43,994,92,2014-08-02T00:20:00,0,20825143,187562
OK,92,43,994,92,2014-08-02T00:25:00,0,20825592,187562
OK,92,43,994,92,2014-08-02T00:30:00,0,20826041,187562
OK,68,58,994,68,2014-08-02T00:35:00,1,20826490,187562
OK,68,58,994,68,2014-08-02T00:40:00,0,20826939,187562
OK,68,58,994,68,2014-08-02T00:45:00,0,20827388,187562
OK,120,32,994,120,2014-08-02T00:50:00,1,20827837,187562
OK,120,32,994,120,2014-08-02T00:55:00,0,20828286,187562
OK,120,32,994,120,2014-08-02T01:00:00,0,20828735,187562
OK,120,32,994,120,2014-08-02T01:05:00,0,20829184,187562
OK,120,32,994,120,2014-08-02T01:10:00,0,20829633,187562
OK,78,50,994,78,2014-08-02T01:15:00,2,20830082,187562
OK,78,50,994,78,2014-08-02T01:20:00,2,20830531,187562
OK,66,59,994,66,2014-08-02T01:25:00,1,20830980,187562
OK,66,59,994,66,2014-08-02T01:30:00,1,20831429,187562
OK,92,43,994,92,2014-08-02T01:35:00,1,20831878,187562
OK,92,43,994,92,2014-08-02T01:40:00,1,20832327,187562
OK,92,43,994,92,2014-08-02T01:45:00,0,20832776,187562
OK,92,43,994,92,2014-08-02T01:50:00,0,20833225,187562
OK,92,43,994,92,2014-08-02T01:55:00,0,20833674,187562
OK,92,43,994,92,2014-08-02T02:00:00,0,20834123,187562
OK,92,43,994,92,2014-08-02T02:05:00,0,20834572,187562
OK,87,45,994,87,2014-08-02T02:10:00,2,20835021,187562
OK,87,45,994,87,2014-08-02T02:15:00,2,20835470,187562
OK,93,42,994,93,2014-08-02T02:20:00,0,20835919,187562
OK,93,42,994,93,2014-08-02T02:25:00,0,20836368,187562
OK,93,42,994,93,2014-08-02T02:30:00,0,20836817,187562
OK,96,41,994,96,2014-08-02T02:35:00,1,20837266,187562
OK,96,41,994,96,2014-08-02T02:40:00,0,20837715,187562
OK,204,19,994,204,2014-08-02T02:45:00,1,20838164,187562
OK,168,23,994,168,2014-08-02T02:50:00,2,20838613,187562
OK,132,29,994,132,2014-08-02T02:55:00,0,20839062,187562
OK,132,29,994,132,2014-08-02T03:00:00,0,20839511,187562
OK,132,29,994,132,2014-08-02T03:05:00,0,20839960,187562
OK,132,29,994,132,2014-08-02T03:10:00,0,20840409,187562
OK,132,29,994,132,2014-08-02T03:15:00,0,20840858,187562
OK,132,29,994,132,2014-08-02T03:20:00,0,20841307,187562
OK,132,29,994,132,2014-08-02T03:25:00,0,20841756,187562
OK,132,29,994,132,2014-08-02T03:30:00,0,20842205,187562
OK,132,29,994,132,2014-08-02T03:35:00,0,20842654,187562
OK,132,29,994,132,2014-08-02T03:40:00,0,20843103,187562
OK,132,29,994,132,2014-08-02T03:45:00,0,20843552,187562
OK,132,29,994,132,2014-08-02T03:50:00,0,20844001,187562
OK,132,29,994,132,2014-08-02T03:55:00,0,20844450,187562
OK,132,29,994,132,2014-08-02T06:00:00,0,20851904,187562
OK,132,29,994,132,2014-08-02T06:05:00,0,20852353,187562
OK,118,33,994,118,2014-08-02T06:10:00,2,20852802,187562
OK,118,33,994,118,2014-08-02T06:15:00,4,20853251,187562
OK,104,38,994,104,2014-08-02T06:20:00,2,20853700,187562
OK,116,34,994,116,2014-08-02T06:25:00,1,20854149,187562
OK,116,34,994,116,2014-08-02T06:30:00,1,20854598,187562
OK,99,39,994,99,2014-08-02T06:35:00,2,20855047,187562
OK,99,39,994,99,2014-08-02T06:40:00,2,20855496,187562
OK,137,28,994,137,2014-08-02T06:45:00,0,20855945,187562
OK,137,28,994,137,2014-08-02T06:50:00,0,20856394,187562
OK,137,28,994,137,2014-08-02T06:55:00,0,20856843,187562
OK,137,28,994,137,2014-08-02T07:00:00,0,20857292,187562
OK,137,28,994,137,2014-08-02T07:05:00,0,20857741,187562
OK,122,32,994,122,2014-08-02T07:10:00,1,20858190,187562
OK,121,32,994,121,2014-08-02T07:15:00,3,20858639,187562
OK,108,36,994,108,2014-08-02T07:20:00,1,20859088,187562
OK,88,44,994,88,2014-08-02T07:25:00,2,20859537,187562
OK,113,35,994,113,2014-08-02T07:30:00,3,20859986,187562
OK,112,35,994,112,2014-08-02T07:35:00,0,20860435,187562
OK,100,39,994,100,2014-08-02T07:40:00,1,20860884,187562
OK,122,32,994,122,2014-08-02T07:45:00,3,20861333,187562
OK,122,32,994,122,2014-08-02T07:50:00,5,20861782,187562
OK,107,36,994,107,2014-08-02T07:55:00,5,20862231,187562
OK,120,32,994,120,2014-08-02T08:00:00,2,20862680,187562
OK,120,32,994,120,2014-08-02T08:05:00,2,20863129,187562
OK,113,35,994,113,2014-08-02T08:10:00,3,20863578,187562
OK,112,35,994,112,2014-08-02T08:15:00,2,20864027,187562
OK,99,39,994,99,2014-08-02T08:20:00,1,20864476,187562
OK,116,34,994,116,2014-08-02T08:25:00,4,20864925,187562
OK,118,33,994,118,2014-08-02T08:30:00,4,20865374,187562
OK,119,33,994,119,2014-08-02T08:35:00,3,20865823,187562
OK,120,32,994,120,2014-08-02T08:40:00,2,20866272,187562
OK,132,29,994,132,2014-08-02T08:45:00,3,20866721,187562
OK,131,30,994,131,2014-08-02T08:50:00,4,20867170,187562
OK,130,30,994,130,2014-08-02T08:55:00,1,20867619,187562
OK,129,30,994,129,2014-08-02T09:00:00,1,20868068,187562
OK,115,34,994,115,2014-08-02T09:05:00,2,20868517,187562
OK,66,59,994,66,2014-08-02T09:10:00,2,20868966,187562
OK,66,59,994,66,2014-08-02T09:15:00,4,20869415,187562
OK,68,58,994,68,2014-08-02T09:20:00,3,20869864,187562
OK,60,65,994,60,2014-08-02T09:25:00,5,20870313,187562
OK,68,58,994,68,2014-08-02T09:30:00,9,20870762,187562
OK,70,56,994,70,2014-08-02T09:35:00,6,20871211,187562
OK,70,56,994,70,2014-08-02T09:40:00,4,20871660,187562
OK,83,47,994,83,2014-08-02T09:45:00,2,20872109,187562
OK,69,57,994,69,2014-08-02T09:50:00,4,20872558,187562
OK,69,57,994,69,2014-08-02T09:55:00,4,20873007,187562
OK,72,54,994,72,2014-08-02T10:00:00,4,20873456,187562
OK,73,54,994,73,2014-08-02T10:05:00,6,20873905,187562
OK,75,52,994,75,2014-08-02T10:10:00,3,20874354,187562
OK,69,57,994,69,2014-08-02T10:15:00,3,20874803,187562
OK,73,54,994,73,2014-08-02T10:20:00,3,20875252,187562
OK,77,51,994,77,2014-08-02T10:25:00,6,20875701,187562
OK,80,49,994,80,2014-08-02T10:30:00,9,20876150,187562
OK,73,54,994,73,2014-08-02T10:35:00,8,20876599,187562
OK,68,58,994,68,2014-08-02T10:40:00,4,20877048,187562
OK,72,54,994,72,2014-08-02T10:45:00,7,20877497,187562
OK,72,54,994,72,2014-08-02T10:50:00,7,20877946,187562
OK,67,59,994,67,2014-08-02T10:55:00,8,20878395,187562
OK,67,59,994,67,2014-08-02T11:00:00,10,20878844,187562
OK,75,52,994,75,2014-08-02T11:05:00,5,20879293,187562
OK,69,57,994,69,2014-08-02T11:10:00,5,20879742,187562
OK,72,54,994,72,2014-08-02T11:15:00,8,20880191,187562
OK,76,52,994,76,2014-08-02T11:20:00,5,20880640,187562
OK,70,56,994,70,2014-08-02T11:25:00,4,20881089,187562
OK,67,59,994,67,2014-08-02T11:30:00,5,20881538,187562
OK,67,59,994,67,2014-08-02T11:35:00,4,20881987,187562
OK,70,56,994,70,2014-08-02T11:40:00,3,20882436,187562
OK,61,64,994,61,2014-08-02T11:45:00,1,20882885,187562
OK,69,57,994,69,2014-08-02T11:50:00,2,20883334,187562
OK,76,52,994,76,2014-08-02T11:55:00,4,20883783,187562
OK,72,54,994,72,2014-08-02T12:00:00,6,20884232,187562
OK,70,56,994,70,2014-08-02T12:05:00,6,20884681,187562
OK,97,40,994,97,2014-08-02T12:10:00,2,20885130,187562
OK,91,43,994,91,2014-08-02T12:15:00,2,20885579,187562
OK,73,54,994,73,2014-08-02T12:20:00,3,20886028,187562
OK,64,61,994,64,2014-08-02T12:25:00,3,20886477,187562
OK,63,62,994,63,2014-08-02T12:30:00,6,20886926,187562
OK,67,59,994,67,2014-08-02T12:35:00,8,20887375,187562
OK,70,56,994,70,2014-08-02T12:40:00,4,20887824,187562
OK,123,32,994,123,2014-08-02T12:45:00,3,20888273,187562
OK,123,32,994,123,2014-08-02T12:50:00,3,20888722,187562
OK,127,31,994,127,2014-08-02T12:55:00,4,20889171,187562
OK,130,30,994,130,2014-08-02T13:00:00,3,20889620,187562
OK,131,30,994,131,2014-08-02T13:05:00,0,20890069,187562
OK,123,32,994,123,2014-08-02T13:10:00,1,20890518,187562
OK,123,32,994,123,2014-08-02T13:15:00,3,20890967,187562
OK,129,30,994,129,2014-08-02T13:20:00,4,20891416,187562
OK,130,30,994,130,2014-08-02T13:25:00,3,20891865,187562
OK,115,34,994,115,2014-08-02T13:30:00,3,20892314,187562
OK,115,34,994,115,2014-08-02T13:35:00,7,20892763,187562
OK,113,35,994,113,2014-08-02T13:40:00,5,20893212,187562
OK,113,35,994,113,2014-08-02T13:45:00,1,20893661,187562
OK,115,34,994,115,2014-08-02T13:50:00,1,20894110,187562
OK,123,32,994,123,2014-08-02T13:55:00,2,20894559,187562
OK,129,30,994,129,2014-08-02T14:00:00,2,20895008,187562
OK,126,31,994,126,2014-08-02T14:05:00,3,20895457,187562
OK,119,33,994,119,2014-08-02T14:10:00,6,20895906,187562
OK,115,34,994,115,2014-08-02T14:15:00,5,20896355,187562
OK,115,34,994,115,2014-08-02T14:20:00,0,20896804,187562
OK,60,65,994,60,2014-08-02T14:25:00,1,20897253,187562
OK,60,65,994,60,2014-08-02T14:30:00,1,20897702,187562
OK,117,33,994,117,2014-08-02T14:35:00,1,20898151,187562
OK,117,33,994,117,2014-08-02T14:40:00,3,20898600,187562
OK,127,31,994,127,2014-08-02T14:45:00,2,20899049,187562
OK,124,31,994,124,2014-08-02T14:50:00,1,20899498,187562
OK,93,42,994,93,2014-08-02T14:55:00,1,20899947,187562
OK,107,36,994,107,2014-08-02T15:00:00,2,20900396,187562
OK,121,32,994,121,2014-08-02T15:05:00,1,20900845,187562
OK,116,34,994,116,2014-08-02T15:10:00,2,20901294,187562
OK,116,34,994,116,2014-08-02T15:15:00,2,20901743,187562
OK,122,32,994,122,2014-08-02T15:20:00,3,20902192,187562
OK,96,41,994,96,2014-08-02T15:25:00,4,20902641,187562
OK,53,74,994,53,2014-08-02T15:30:00,1,20903090,187562
OK,71,55,994,71,2014-08-02T15:35:00,3,20903539,187562
OK,105,37,994,105,2014-08-02T15:40:00,7,20903988,187562
OK,104,38,994,104,2014-08-02T15:45:00,8,20904437,187562
OK,108,36,994,108,2014-08-02T15:50:00,4,20904886,187562
OK,125,31,994,125,2014-08-02T15:55:00,4,20905335,187562
OK,131,30,994,131,2014-08-02T16:00:00,3,20905784,187562
OK,122,32,994,122,2014-08-02T16:05:00,1,20906233,187562
OK,126,31,994,126,2014-08-02T16:10:00,1,20906682,187562
OK,123,32,994,123,2014-08-02T16:15:00,2,20907131,187562
OK,120,32,994,120,2014-08-02T16:20:00,5,20907580,187562
OK,106,37,994,106,2014-08-02T16:25:00,4,20908029,187562
OK,120,32,994,120,2014-08-02T16:30:00,0,20908478,187562
OK,129,30,994,129,2014-08-02T16:35:00,1,20908927,187562
OK,95,41,994,95,2014-08-02T16:40:00,1,20909376,187562
OK,150,26,994,150,2014-08-02T16:45:00,2,20909825,187562
OK,205,19,994,205,2014-08-02T16:50:00,1,20910274,187562
OK,102,38,994,102,2014-08-02T16:55:00,2,20910723,187562
OK,108,36,994,108,2014-08-02T17:00:00,2,20911172,187562
OK,108,36,994,108,2014-08-02T17:05:00,2,20911621,187562
OK,98,40,994,98,2014-08-02T17:10:00,1,20912070,187562
OK,127,31,994,127,2014-08-02T17:15:00,1,20912519,187562
OK,124,31,994,124,2014-08-02T17:20:00,3,20912968,187562
OK,122,32,994,122,2014-08-02T17:25:00,2,20913417,187562
OK,57,69,994,57,2014-08-02T17:30:00,1,20913866,187562
OK,57,69,994,57,2014-08-02T17:35:00,1,20914315,187562
OK,106,37,994,106,2014-08-02T17:40:00,1,20914764,187562
OK,115,34,994,115,2014-08-02T17:45:00,2,20915213,187562
OK,124,31,994,124,2014-08-02T17:50:00,1,20915662,187562
OK,124,31,994,124,2014-08-02T17:55:00,0,20916111,187562
OK,122,32,994,122,2014-08-02T18:00:00,1,20916560,187562
OK,122,32,994,122,2014-08-02T18:05:00,1,20917009,187562
OK,123,32,994,123,2014-08-02T18:10:00,2,20917458,187562
OK,123,32,994,123,2014-08-02T18:15:00,2,20917907,187562
OK,126,31,994,126,2014-08-02T18:20:00,1,20918356,187562
OK,120,32,994,120,2014-08-02T18:25:00,3,20918805,187562
OK,119,33,994,119,2014-08-02T18:30:00,2,20919254,187562
OK,102,38,994,102,2014-08-02T18:35:00,4,20919703,187562
OK,102,38,994,102,2014-08-02T18:40:00,4,20920152,187562
OK,207,19,994,207,2014-08-02T18:45:00,1,20920601,187562
OK,120,32,994,120,2014-08-02T18:50:00,1,20921050,187562
OK,120,32,994,120,2014-08-02T18:55:00,1,20921499,187562
OK,81,48,994,81,2014-08-02T19:00:00,1,20921948,187562
OK,81,48,994,81,2014-08-02T19:05:00,1,20922397,187562
OK,117,33,994,117,2014-08-02T19:10:00,1,20922846,187562
OK,125,31,994,125,2014-08-02T19:15:00,2,20923295,187562
OK,129,30,994,129,2014-08-02T19:20:00,3,20923744,187562
OK,126,31,994,126,2014-08-02T19:25:00,5,20924193,187562
OK,126,31,994,126,2014-08-02T19:30:00,3,20924642,187562
OK,126,31,994,126,2014-08-02T19:35:00,0,20925091,187562
OK,127,31,994,127,2014-08-02T19:40:00,2,20925540,187562
OK,124,31,994,124,2014-08-02T19:45:00,3,20925989,187562
OK,92,43,994,92,2014-08-02T19:50:00,2,20926438,187562
OK,125,31,994,125,2014-08-02T19:55:00,0,20926887,187562
OK,122,32,994,122,2014-08-02T20:00:00,1,20927336,187562
OK,122,32,994,122,2014-08-02T20:05:00,1,20927785,187562
OK,122,32,994,122,2014-08-02T20:10:00,0,20928234,187562
OK,108,36,994,108,2014-08-02T20:15:00,2,20928683,187562
OK,111,35,994,111,2014-08-02T20:20:00,2,20929132,187562
OK,122,32,994,122,2014-08-02T20:25:00,3,20929581,187562
OK,74,53,994,74,2014-08-02T20:30:00,3,20930030,187562
OK,119,33,994,119,2014-08-02T20:35:00,3,20930479,187562
OK,112,35,994,112,2014-08-02T20:40:00,2,20930928,187562
OK,112,35,994,112,2014-08-02T20:45:00,2,20931377,187562
OK,126,31,994,126,2014-08-02T20:50:00,1,20931826,187562
OK,103,38,994,103,2014-08-02T20:55:00,2,20932275,187562
OK,99,39,994,99,2014-08-02T21:00:00,1,20932724,187562
OK,99,39,994,99,2014-08-02T21:05:00,0,20933173,187562
OK,126,31,994,126,2014-08-02T21:10:00,1,20933622,187562
OK,119,33,994,119,2014-08-02T21:15:00,2,20934071,187562
OK,112,35,994,112,2014-08-02T21:20:00,1,20934520,187562
OK,112,35,994,112,2014-08-02T21:25:00,0,20934969,187562
OK,112,35,994,112,2014-08-02T21:30:00,0,20935418,187562
OK,132,29,994,132,2014-08-02T21:35:00,1,20935867,187562
OK,132,29,994,132,2014-08-02T21:40:00,1,20936316,187562
OK,118,33,994,118,2014-08-02T21:45:00,2,20936765,187562
OK,118,33,994,118,2014-08-02T21:50:00,2,20937214,187562
OK,129,30,994,129,2014-08-02T21:55:00,1,20937663,187562
OK,129,30,994,129,2014-08-02T22:00:00,0,20938112,187562
OK,129,30,994,129,2014-08-02T22:05:00,0,20938561,187562
OK,129,30,994,129,2014-08-02T22:10:00,0,20939010,187562
OK,129,30,994,129,2014-08-02T22:15:00,0,20939459,187562
OK,129,30,994,129,2014-08-02T22:20:00,0,20939908,187562
OK,129,30,994,129,2014-08-02T22:25:00,0,20940357,187562
OK,129,30,994,129,2014-08-02T22:30:00,0,20940806,187562
OK,129,30,994,129,2014-08-02T22:35:00,0,20941255,187562
OK,86,46,994,86,2014-08-02T22:40:00,1,20941704,187562
OK,86,46,994,86,2014-08-02T22:45:00,3,20942153,187562
OK,88,44,994,88,2014-08-02T22:50:00,2,20942602,187562
OK,84,47,994,84,2014-08-02T22:55:00,0,20943051,187562
OK,84,47,994,84,2014-08-02T23:00:00,0,20943500,187562
OK,92,43,994,92,2014-08-02T23:10:00,1,20943949,187562
OK,92,43,994,92,2014-08-02T23:15:00,0,20944398,187562
OK,89,44,994,89,2014-08-02T23:20:00,1,20944847,187562
OK,89,44,994,89,2014-08-02T23:25:00,1,20945296,187562
OK,89,44,994,89,2014-08-02T23:30:00,0,20945745,187562
OK,89,44,994,89,2014-08-02T23:35:00,0,20946194,187562
OK,89,44,994,89,2014-08-02T23:40:00,0,20946643,187562
OK,89,44,994,89,2014-08-02T23:45:00,0,20947092,187562
OK,89,44,994,89,2014-08-02T23:50:00,0,20947541,187562
OK,89,44,994,89,2014-08-02T23:55:00,0,20947990,187562
OK,89,44,994,89,2014-08-03T00:00:00,0,20948439,187562
OK,89,44,994,89,2014-08-03T00:05:00,0,20948888,187562
OK,87,45,994,87,2014-08-03T00:10:00,1,20949336,187562
OK,87,45,994,87,2014-08-03T00:15:00,1,20949785,187562
OK,135,29,994,135,2014-08-03T00:20:00,1,20950234,187562
OK,109,36,994,109,2014-08-03T00:25:00,2,20950683,187562
OK,83,47,994,83,2014-08-03T00:30:00,0,20951132,187562
OK,87,45,994,87,2014-08-03T00:35:00,1,20951581,187562
OK,80,49,994,80,2014-08-03T00:40:00,2,20952030,187562
OK,80,49,994,80,2014-08-03T00:45:00,1,20952479,187562
OK,104,38,994,104,2014-08-03T00:50:00,2,20952928,187562
OK,104,38,994,104,2014-08-03T00:55:00,0,20953377,187562
OK,104,38,994,104,2014-08-03T01:00:00,0,20953826,187562
OK,84,47,994,84,2014-08-03T01:05:00,1,20954275,187562
OK,84,47,994,84,2014-08-03T01:10:00,0,20954724,187562
OK,84,47,994,84,2014-08-03T01:15:00,0,20955173,187562
OK,108,36,994,108,2014-08-03T01:20:00,1,20955622,187562
OK,108,36,994,108,2014-08-03T01:25:00,1,20956071,187562
OK,108,36,994,108,2014-08-03T01:30:00,0,20956520,187562
OK,108,36,994,108,2014-08-03T01:35:00,0,20956969,187562
OK,108,36,994,108,2014-08-03T01:40:00,0,20957418,187562
OK,108,36,994,108,2014-08-03T01:45:00,0,20957867,187562
OK,108,36,994,108,2014-08-03T01:50:00,0,20958316,187562